CW2046 Weather Reports


time (UTC)temp
F
wind
direction
speed
knots
gust
knots
rain 1hr
in
rain 24hr
in
rain mn
in
humidity
%
barometer
mb
20260502195201 59 340 0.0 0.9 0.00 0.00 0.00 66 1012.1
20260502195101 59 342 0.0 0.9 0.00 0.00 0.00 65 1012.2
20260502194902 59 340 0.0 0.9 0.00 0.00 0.00 65 1012.1
20260502194802 59 340 0.0 0.9 0.00 0.00 0.00 65 1012.2
20260502194702 59 1 0.0 0.9 0.00 0.00 0.00 65 1012.3
20260502194601 59 151 0.0 0.9 0.00 0.00 0.00 66 1012.3
20260502194501 59 150 0.0 0.9 0.00 0.00 0.00 67 1012.2
20260502194401 59 150 0.0 0.9 0.00 0.00 0.00 66 1012.2
20260502194102 59 150 0.0 0.9 0.00 0.00 0.00 67 1012.3
20260502194001 59 150 0.0 0.9 0.00 0.00 0.00 67 1012.3
20260502193902 59 152 0.0 0.9 0.00 0.00 0.00 67 1012.3
20260502193801 59 319 0.0 0.9 0.00 0.00 0.00 67 1012.3
20260502193701 59 319 0.0 0.9 0.00 0.00 0.00 67 1012.3
20260502193602 59 319 0.0 0.9 0.00 0.00 0.00 68 1012.4
20260502193501 59 316 0.0 0.9 0.00 0.00 0.00 67 1012.4
20260502193402 59 316 0.0 0.9 0.00 0.00 0.00 67 1012.3
20260502193304 59 317 0.0 0.9 0.00 0.00 0.00 67 1012.3
20260502193202 59 321 0.0 0.9 0.00 0.00 0.00 66 1012.4
20260502193101 59 321 0.0 0.9 0.00 0.00 0.00 66 1012.3
20260502193002 59 319 0.0 0.9 0.00 0.00 0.00 66 1012.3
20260502192902 59 319 0.0 0.9 0.00 0.00 0.00 67 1012.3
20260502192801 59 319 0.0 0.9 0.00 0.00 0.00 66 1012.3
20260502192701 59 319 0.0 0.9 0.00 0.00 0.00 66 1012.2
20260502192401 59 319 0.0 0.9 0.00 0.00 0.00 65 1012.2
20260502192202 59 319 0.0 0.9 0.00 0.00 0.00 66 1012.2
20260502192101 59 319 0.0 0.9 0.00 0.00 0.00 66 1012.2
20260502192003 59 290 0.0 0.9 0.00 0.00 0.00 66 1012.2
20260502191901 59 330 0.0 0.0 0.00 0.00 0.00 67 1012.3
20260502191802 59 330 0.0 0.0 0.00 0.00 0.00 67 1012.3
20260502191702 59 330 0.0 0.0 0.00 0.00 0.00 66 1012.3
20260502191501 59 332 0.0 0.0 0.00 0.00 0.00 66 1012.3
20260502191301 59 330 0.0 0.9 0.00 0.00 0.00 65 1012.3
20260502191101 59 332 0.0 0.9 0.00 0.00 0.00 67 1012.3
20260502191002 59 333 0.0 0.9 0.00 0.00 0.00 68 1012.4
20260502190701 59 336 0.0 0.9 0.00 0.00 0.00 67 1012.4
20260502190501 59 335 0.0 0.9 0.00 0.00 0.00 67 1012.3
20260502190402 59 335 0.0 0.9 0.00 0.00 0.00 68 1012.3
20260502190301 59 333 0.0 0.9 0.00 0.00 0.00 69 1012.4
20260502190202 59 333 0.0 0.9 0.00 0.00 0.00 68 1012.2
20260502190104 59 335 0.0 0.9 0.00 0.00 0.00 68 1012.3
20260502190001 59 333 0.0 0.9 0.00 0.00 0.00 66 1012.3
20260502185900 59 335 0.0 0.9 0.00 0.00 0.00 67 1012.3
20260502185800 59 334 0.0 0.9 0.00 0.00 0.00 67 1012.3
20260502185600 59 334 0.0 0.9 0.00 0.00 0.00 66 1012.3
20260502185401 59 335 0.0 1.7 0.00 0.00 0.00 65 1012.4
20260502185300 59 336 0.0 1.7 0.00 0.00 0.00 65 1012.4
20260502185201 59 333 0.0 1.7 0.00 0.00 0.00 66 1012.4
20260502185101 59 349 0.0 1.7 0.00 0.00 0.00 66 1012.4
20260502185001 59 358 0.0 3.5 0.00 0.00 0.00 67 1012.3
20260502184901 59 27 0.0 3.5 0.00 0.00 0.00 67 1012.3
20260502184702 59 356 0.0 3.5 0.00 0.00 0.00 67 1012.3
20260502184600 59 123 0.0 3.5 0.00 0.00 0.00 67 1012.4
20260502184503 59 155 0.0 3.5 0.00 0.00 0.00 67 1012.5
20260502184501 59 155 0.0 3.5 0.00 0.00 0.00 67 1012.5
20260502184400 59 130 0.0 3.5 0.00 0.00 0.00 66 1012.5
20260502184202 59 128 0.0 3.5 0.00 0.00 0.00 68 1012.5
20260502184100 59 132 0.0 1.7 0.00 0.00 0.00 68 1012.5
20260502183902 59 130 0.0 1.7 0.00 0.00 0.00 68 1012.4
20260502183700 58 130 0.0 1.7 0.00 0.00 0.00 68 1012.5
20260502183502 58 122 0.0 1.7 0.00 0.00 0.00 68 1012.6
20260502183400 58 139 0.0 1.7 0.00 0.00 0.00 68 1012.7
20260502183300 58 143 0.0 0.9 0.00 0.00 0.00 68 1012.6
20260502183201 58 79 0.0 0.9 0.00 0.00 0.00 68 1012.7
20260502183101 58 79 0.0 0.9 0.00 0.00 0.00 69 1012.7
20260502183001 58 338 0.0 0.9 0.00 0.00 0.00 71 1012.7
20260502182901 58 337 0.0 0.9 0.00 0.00 0.00 71 1012.6
20260502182801 58 338 0.0 0.9 0.00 0.00 0.00 71 1012.7
20260502182701 58 338 0.0 0.9 0.00 0.00 0.00 70 1012.7
20260502182601 57 329 0.0 0.9 0.00 0.00 0.00 70 1012.7
20260502182500 57 329 0.0 0.9 0.00 0.00 0.00 70 1012.6
20260502182400 57 329 0.0 0.9 0.00 0.00 0.00 69 1012.6
20260502182100 58 329 0.0 0.9 0.00 0.00 0.00 69 1012.7
20260502182000 58 329 0.0 0.9 0.00 0.00 0.00 68 1012.7
20260502181900 58 327 0.0 0.9 0.00 0.00 0.00 68 1012.8
20260502181800 58 328 0.0 0.9 0.00 0.00 0.00 68 1012.9
20260502181701 58 327 0.0 0.9 0.00 0.00 0.00 68 1012.8
20260502181601 58 327 0.0 0.9 0.00 0.00 0.00 68 1012.9
20260502181502 58 147 0.0 0.9 0.00 0.00 0.00 68 1012.9
20260502181405 58 146 0.0 0.9 0.00 0.00 0.00 67 1012.9
20260502181304 58 143 0.0 0.9 0.00 0.00 0.00 69 1012.8
20260502181200 58 134 0.0 0.9 0.00 0.00 0.00 68 1012.8
20260502181003 58 152 0.0 1.7 0.00 0.00 0.00 68 1012.8
20260502180905 58 152 0.0 1.7 0.00 0.00 0.00 68 1012.7
20260502180802 58 152 0.0 1.7 0.00 0.00 0.00 69 1012.8
20260502180704 58 152 0.0 1.7 0.00 0.00 0.00 68 1012.7
20260502180603 58 153 0.0 1.7 0.00 0.00 0.00 69 1012.8
20260502180502 58 153 0.0 1.7 0.00 0.00 0.00 69 1012.7
20260502180359 58 122 0.0 1.7 0.00 0.00 0.00 69 1012.8
20260502180302 58 121 0.0 1.7 0.00 0.00 0.00 69 1012.8
20260502170502 57 325 0.0 0.9 0.00 0.00 0.00 75 1013.3
20260502170401 57 150 0.0 0.9 0.00 0.00 0.00 74 1013.3
20260502170302 57 150 0.0 0.9 0.00 0.00 0.00 74 1013.3
20260502170201 57 152 0.0 0.9 0.00 0.00 0.00 75 1013.2
20260502164200 57 157 0.0 0.9 0.00 0.00 0.00 75 1013.2
20260502164102 57 157 0.0 0.9 0.00 0.00 0.00 76 1013.3
20260502163901 57 156 0.0 0.9 0.00 0.00 0.00 77 1013.4
20260502163801 57 157 0.0 0.9 0.00 0.00 0.00 76 1013.4
20260502163700 57 157 0.0 0.9 0.00 0.00 0.00 76 1013.3
20260502163601 57 347 0.0 0.9 0.00 0.00 0.00 76 1013.5
20260502163500 57 359 0.0 0.0 0.00 0.00 0.00 76 1013.5
20260502163401 57 360 0.0 0.0 0.00 0.00 0.00 77 1013.5
20260502163302 56 359 0.0 0.0 0.00 0.00 0.00 76 1013.6
20260502163200 56 343 0.0 0.0 0.00 0.00 0.00 76 1013.6
20260502163105 56 343 0.0 0.0 0.00 0.00 0.00 76 1013.7
20260502163100 56 343 0.0 0.0 0.00 0.00 0.00 76 1013.7
20260502163000 56 343 0.0 0.0 0.00 0.00 0.00 76 1013.7
20260502162900 56 336 0.0 0.0 0.00 0.00 0.00 76 1013.8
20260502162801 56 336 0.0 0.0 0.00 0.00 0.00 76 1013.7
20260502162701 56 335 0.0 0.0 0.00 0.00 0.00 76 1013.8
20260502162600 56 335 0.0 0.0 0.00 0.00 0.00 77 1014.0
20260502162401 56 334 0.0 0.0 0.00 0.00 0.00 77 1014.1
20260502162304 56 335 0.0 0.0 0.00 0.00 0.00 76 1014.1
20260502162200 56 335 0.0 0.0 0.00 0.00 0.00 77 1014.1
20260502162059 56 335 0.0 0.0 0.00 0.00 0.00 76 1014.2
20260502161900 56 335 0.0 0.0 0.00 0.00 0.00 77 1014.2
20260502161801 56 335 0.0 0.0 0.00 0.00 0.00 77 1014.2
20260502161700 56 335 0.0 0.0 0.00 0.00 0.00 77 1014.3
20260502161601 56 335 0.0 0.0 0.00 0.00 0.00 76 1014.3
20260502161500 56 335 0.0 0.0 0.00 0.00 0.00 76 1014.3
20260502161301 55 334 0.0 0.0 0.00 0.00 0.00 76 1014.3
20260502161200 55 335 0.0 0.0 0.00 0.00 0.00 76 1014.3
20260502161100 55 334 0.0 0.0 0.00 0.00 0.00 76 1014.4
20260502161000 55 335 0.0 0.0 0.00 0.00 0.00 76 1014.4
20260502160602 55 334 0.0 0.9 0.00 0.00 0.00 75 1014.4
20260502160501 56 335 0.0 0.9 0.00 0.00 0.00 75 1014.4
20260502160401 56 335 0.0 0.9 0.00 0.00 0.00 76 1014.4
20260502160301 56 334 0.0 0.9 0.00 0.00 0.00 76 1014.4
20260502160201 56 335 0.0 0.9 0.00 0.00 0.00 76 1014.4
20260502152201 56 335 0.0 0.9 0.00 0.00 0.00 77 1013.7
20260502152100 56 335 0.0 0.9 0.00 0.00 0.00 77 1013.7
20260502152001 56 334 0.0 0.9 0.00 0.00 0.00 76 1013.8
20260502151901 56 333 0.0 0.9 0.00 0.00 0.00 76 1013.8
20260502151701 56 334 0.0 0.9 0.00 0.00 0.00 76 1013.9
20260502151601 56 335 0.0 0.0 0.00 0.00 0.00 76 1013.8
20260502151501 56 334 0.0 0.0 0.00 0.00 0.00 76 1013.8
20260502151301 56 335 0.0 0.0 0.00 0.00 0.00 76 1014.0
20260502151200 56 333 0.0 0.0 0.00 0.00 0.00 76 1014.0
20260502151100 56 333 0.0 0.0 0.00 0.00 0.00 77 1013.9
20260502151001 56 335 0.0 0.0 0.00 0.00 0.00 77 1013.8
20260502150900 56 334 0.0 0.0 0.00 0.00 0.00 76 1013.9
20260502150804 56 334 0.0 0.0 0.00 0.00 0.00 76 1013.9
20260502150300 56 335 0.0 0.0 0.00 0.00 0.00 77 1014.1
20260502150201 56 334 0.0 0.0 0.00 0.00 0.00 77 1014.1
20260502150114 56 335 0.0 0.0 0.00 0.00 0.00 77 1014.0
20260502130601 53 333 0.0 0.9 0.00 0.00 0.00 77 1013.4
20260502130501 53 335 0.0 0.9 0.00 0.00 0.00 77 1013.4
20260502130400 53 335 0.0 0.9 0.00 0.00 0.00 77 1013.5
20260502130301 53 335 0.0 0.9 0.00 0.00 0.00 77 1013.6
20260502130201 53 334 0.0 0.9 0.00 0.00 0.00 77 1013.6
20260502123800 53 334 0.0 0.9 0.00 0.00 0.00 78 1013.5
20260502123702 53 334 0.0 0.9 0.00 0.00 0.00 78 1013.6
20260502123600 53 335 0.0 0.9 0.00 0.00 0.00 79 1013.6
20260502123501 53 333 0.0 0.9 0.00 0.00 0.00 79 1013.5
20260502123402 53 333 0.0 0.9 0.00 0.00 0.00 79 1013.4
20260502123300 53 333 0.0 0.9 0.00 0.00 0.00 78 1013.5
20260502123201 53 334 0.0 0.9 0.00 0.00 0.00 79 1013.4
20260502123111 53 333 0.0 0.9 0.00 0.00 0.00 78 1013.5
20260502123102 53 333 0.0 0.9 0.00 0.00 0.00 78 1013.5
20260502123000 53 333 0.0 0.9 0.00 0.00 0.00 78 1013.5
20260502122902 52 333 0.0 0.9 0.00 0.00 0.00 79 1013.5
20260502122800 52 333 0.0 0.9 0.00 0.00 0.00 79 1013.5
20260502122701 52 335 0.0 0.9 0.00 0.00 0.00 79 1013.5
20260502122602 52 336 0.0 0.9 0.00 0.00 0.00 79 1013.5
20260502122459 52 335 0.0 0.9 0.00 0.00 0.00 79 1013.5
20260502122401 52 335 0.0 0.9 0.00 0.00 0.00 79 1013.4
20260502122300 52 335 0.0 0.9 0.00 0.00 0.00 79 1013.4
20260502122200 52 333 0.0 0.9 0.00 0.00 0.00 79 1013.5
20260502122000 52 335 0.0 0.9 0.00 0.00 0.00 80 1013.4
20260502121901 52 333 0.0 0.9 0.00 0.00 0.00 80 1013.3
20260502121800 52 333 0.0 0.9 0.00 0.00 0.00 80 1013.3
20260502121701 52 333 0.0 0.9 0.00 0.00 0.00 80 1013.2
20260502121603 52 333 0.0 0.9 0.00 0.00 0.00 80 1013.1
20260502121600 52 333 0.0 0.9 0.00 0.00 0.00 80 1013.2
20260502121500 52 333 0.0 0.9 0.00 0.00 0.00 80 1013.2
20260502121402 52 334 0.0 0.9 0.00 0.00 0.00 80 1013.2
20260502121203 52 334 0.0 0.9 0.00 0.00 0.00 80 1013.1
20260502121100 52 334 0.0 0.9 0.00 0.00 0.00 80 1013.2
20260502121000 52 335 0.0 0.9 0.00 0.00 0.00 80 1013.1
20260502120901 52 333 0.0 0.9 0.00 0.00 0.00 80 1013.1
20260502120801 52 333 0.0 0.9 0.00 0.00 0.00 81 1013.2
20260502120701 52 333 0.0 0.9 0.00 0.00 0.00 81 1013.1
20260502120601 52 334 0.0 0.9 0.00 0.00 0.00 81 1013.1
20260502120500 52 334 0.0 0.9 0.00 0.00 0.00 81 1013.1
20260502120400 52 335 0.0 0.9 0.00 0.00 0.00 81 1013.1
20260502120302 52 334 0.0 0.9 0.00 0.00 0.00 81 1013.2
20260502120200 52 334 0.0 0.9 0.00 0.00 0.00 81 1013.0
20260502115900 52 336 0.0 0.9 0.00 0.00 0.00 82 1013.1
20260502115801 52 336 0.0 0.9 0.00 0.00 0.00 81 1013.2
20260502115701 52 336 0.0 0.9 0.00 0.00 0.00 81 1013.1
20260502115601 52 335 0.0 0.9 0.00 0.00 0.00 81 1013.2
20260502115501 52 335 0.0 0.9 0.00 0.00 0.00 82 1013.2
20260502115400 52 336 0.0 0.9 0.00 0.00 0.00 82 1013.2
20260502115201 52 336 0.0 0.9 0.00 0.00 0.00 82 1013.2
20260502115000 52 335 0.0 0.9 0.00 0.00 0.00 82 1013.2
20260502114900 52 335 0.0 0.9 0.00 0.00 0.00 82 1013.2
20260502114701 52 335 0.0 0.9 0.00 0.00 0.00 82 1013.2
20260502114603 52 336 0.0 0.9 0.00 0.00 0.00 82 1013.2
20260502114600 52 336 0.0 0.9 0.00 0.00 0.00 82 1013.3
20260502114501 52 333 0.0 0.0 0.00 0.00 0.00 82 1013.3
20260502114301 52 334 0.0 0.0 0.00 0.00 0.00 82 1013.3
20260502114200 52 334 0.0 0.9 0.00 0.00 0.00 82 1013.3
20260502114101 52 334 0.0 0.9 0.00 0.00 0.00 82 1013.3
20260502114000 52 334 0.0 0.9 0.00 0.00 0.00 82 1013.2
20260502113900 52 334 0.0 0.9 0.00 0.00 0.00 82 1013.1
20260502113801 52 334 0.0 0.9 0.00 0.00 0.00 82 1013.2
20260502113701 52 334 0.0 0.9 0.00 0.00 0.00 82 1013.3
20260502113601 52 334 0.0 0.9 0.00 0.00 0.00 82 1013.2
20260502113500 52 335 0.0 0.9 0.00 0.00 0.00 82 1013.2
20260502113200 52 287 0.0 0.0 0.00 0.00 0.00 82 1013.2
20260502113100 52 285 0.0 0.0 0.00 0.00 0.00 82 1013.2
20260502113000 52 285 0.0 0.0 0.00 0.00 0.00 82 1013.2
20260502112900 52 285 0.0 0.0 0.00 0.00 0.00 82 1013.1
20260502112800 52 285 0.0 0.0 0.00 0.00 0.00 83 1013.2
20260502112701 52 285 0.0 0.0 0.00 0.00 0.00 83 1013.1
20260502112600 52 285 0.0 0.0 0.00 0.00 0.00 83 1013.0
20260502112500 52 285 0.0 0.0 0.00 0.00 0.00 83 1013.0
20260502112300 52 285 0.0 0.9 0.00 0.00 0.00 83 1013.1
20260502112200 52 285 0.0 0.9 0.00 0.00 0.00 83 1012.9
20260502112100 52 285 0.0 0.9 0.00 0.00 0.00 83 1013.0
20260502112001 52 285 0.0 0.9 0.00 0.00 0.00 83 1013.0
20260502111900 52 285 0.0 0.9 0.00 0.00 0.00 83 1013.0
20260502111801 52 285 0.0 0.9 0.00 0.00 0.00 83 1013.0
20260502111701 52 285 0.0 0.9 0.00 0.00 0.00 83 1013.1
20260502111602 52 285 0.0 0.9 0.00 0.00 0.00 84 1013.1
20260502111600 52 285 0.0 0.9 0.00 0.00 0.00 84 1013.1
20260502111500 52 285 0.0 0.9 0.00 0.00 0.00 84 1013.1
20260502111400 52 284 0.0 0.0 0.00 0.00 0.00 84 1013.1
20260502111102 52 284 0.0 0.0 0.00 0.00 0.00 84 1013.1
20260502111000 52 284 0.0 0.0 0.00 0.00 0.00 84 1013.3
20260502110900 52 284 0.0 0.0 0.00 0.00 0.00 84 1013.1
20260502110802 52 285 0.0 0.0 0.00 0.00 0.00 84 1013.1
20260502110701 52 284 0.0 0.0 0.00 0.00 0.00 84 1013.3
20260502110601 52 283 0.0 0.0 0.00 0.00 0.00 84 1013.3
20260502110500 52 283 0.0 0.0 0.00 0.00 0.00 84 1013.4
20260502110401 52 283 0.0 0.0 0.00 0.00 0.00 84 1013.3
20260502110200 52 283 0.0 0.0 0.00 0.00 0.00 84 1013.2
20260502110100 52 282 0.0 0.0 0.00 0.00 0.00 85 1013.3
20260502110001 52 283 0.0 0.0 0.00 0.00 0.00 85 1013.2
20260502105901 52 282 0.0 0.0 0.00 0.00 0.00 85 1013.3
20260502105801 52 283 0.0 0.0 0.00 0.00 0.00 85 1013.3
20260502105700 52 282 0.0 0.9 0.00 0.00 0.00 85 1013.2
20260502105500 52 283 0.0 0.9 0.00 0.00 0.00 85 1013.2
20260502105305 52 283 0.0 0.9 0.00 0.00 0.00 85 1013.2
20260502105200 52 283 0.0 0.9 0.00 0.00 0.00 85 1013.2
20260502105101 52 282 0.0 0.9 0.00 0.00 0.00 85 1013.2
20260502104800 52 283 0.0 0.9 0.00 0.00 0.00 85 1013.3
20260502104701 52 283 0.0 0.9 0.00 0.00 0.00 85 1013.3
20260502104600 52 281 0.0 0.0 0.00 0.00 0.00 85 1013.4
20260502104505 52 281 0.0 0.0 0.00 0.00 0.00 85 1013.2
20260502104501 52 281 0.0 0.0 0.00 0.00 0.00 85 1013.4
20260502104301 52 281 0.0 0.0 0.00 0.00 0.00 85 1013.4
20260502104200 52 281 0.0 0.0 0.00 0.00 0.00 85 1013.4
20260502104101 52 281 0.0 0.0 0.00 0.00 0.00 85 1013.4
20260502104000 52 281 0.0 0.0 0.00 0.00 0.00 85 1013.4
20260502103800 52 281 0.0 0.0 0.00 0.00 0.00 85 1013.3
20260502103701 52 281 0.0 0.0 0.00 0.00 0.00 85 1013.3
20260502103501 52 281 0.0 0.0 0.00 0.00 0.00 85 1013.3
20260502103400 52 281 0.0 0.0 0.00 0.00 0.00 85 1013.3
20260502103300 52 281 0.0 0.0 0.00 0.00 0.00 85 1013.3
20260502103200 52 281 0.0 0.0 0.00 0.00 0.00 85 1013.4
20260502103114 52 281 0.0 0.0 0.00 0.00 0.00 85 1013.2
20260502103101 52 281 0.0 0.0 0.00 0.00 0.00 85 1013.3
20260502103002 52 281 0.0 0.0 0.00 0.00 0.00 85 1013.4
20260502102900 52 281 0.0 0.0 0.00 0.00 0.00 85 1013.3
20260502102800 52 281 0.0 0.0 0.00 0.00 0.00 85 1013.3
20260502102702 52 281 0.0 0.0 0.00 0.00 0.00 85 1013.2
20260502102601 52 281 0.0 0.0 0.00 0.00 0.00 85 1013.2
20260502102501 52 281 0.0 0.0 0.00 0.00 0.00 85 1013.3
20260502102401 52 281 0.0 0.0 0.00 0.00 0.00 86 1013.3
20260502102300 52 281 0.0 0.0 0.00 0.00 0.00 86 1013.4
20260502102200 52 281 0.0 0.0 0.00 0.00 0.00 86 1013.4
20260502102100 52 281 0.0 0.0 0.00 0.00 0.00 86 1013.4
20260502101901 52 281 0.0 0.0 0.00 0.00 0.00 86 1013.4
20260502101800 52 281 0.0 0.0 0.00 0.00 0.00 86 1013.5
20260502101602 52 281 0.0 0.9 0.00 0.00 0.00 86 1013.5
20260502101501 52 281 0.0 0.9 0.00 0.00 0.00 86 1013.5
20260502101401 52 281 0.0 0.9 0.00 0.00 0.00 86 1013.5
20260502101300 52 281 0.0 0.9 0.00 0.00 0.00 86 1013.5
20260502101200 52 281 0.0 0.9 0.00 0.00 0.00 86 1013.4
20260502101102 52 281 0.0 0.9 0.00 0.00 0.00 86 1013.4
20260502101002 52 281 0.0 0.9 0.00 0.00 0.00 87 1013.5
20260502100900 52 266 0.0 0.9 0.00 0.00 0.00 87 1013.4
20260502100800 52 259 0.0 0.9 0.00 0.00 0.00 87 1013.4
20260502100700 52 256 0.0 0.0 0.00 0.00 0.00 87 1013.5
20260502100600 52 256 0.0 0.0 0.00 0.00 0.00 87 1013.6
20260502100402 52 256 0.0 0.0 0.00 0.00 0.00 87 1013.6
20260502100300 52 256 0.0 0.0 0.00 0.00 0.00 87 1013.6
20260502100201 52 257 0.0 0.0 0.00 0.00 0.00 87 1013.6
20260502100124 52 256 0.0 0.0 0.00 0.00 0.00 87 1013.6
20260502091504 51 255 0.0 0.0 0.00 0.00 0.00 89 1013.4
20260502091501 51 255 0.0 0.0 0.00 0.00 0.00 89 1013.4
20260502091300 51 255 0.0 0.0 0.00 0.00 0.00 89 1013.4
20260502091200 51 255 0.0 0.0 0.00 0.00 0.00 89 1013.3
20260502091100 51 254 0.0 0.0 0.00 0.00 0.00 89 1013.3
20260502091000 51 255 0.0 0.0 0.00 0.00 0.00 89 1013.3
20260502090900 51 255 0.0 0.0 0.00 0.00 0.00 89 1013.4
20260502090801 51 254 0.0 0.0 0.00 0.00 0.00 89 1013.4
20260502090700 51 255 0.0 0.0 0.00 0.00 0.00 89 1013.4
20260502090600 51 254 0.0 0.0 0.00 0.00 0.00 89 1013.2
20260502090500 51 255 0.0 0.0 0.00 0.00 0.00 89 1013.2
20260502090400 51 255 0.0 0.0 0.00 0.00 0.00 89 1013.3
20260502090200 51 254 0.0 0.0 0.00 0.00 0.00 89 1013.3
20260502090112 51 255 0.0 0.0 0.00 0.00 0.00 89 1013.3
20260502080105 51 255 0.0 0.0 0.00 0.00 0.00 88 1012.8
20260502071459 51 252 0.0 0.0 0.00 0.00 0.00 88 1012.6
20260502071359 51 252 0.0 0.0 0.00 0.00 0.00 88 1012.6
20260502071059 51 252 0.0 0.0 0.00 0.00 0.00 88 1012.7
20260502070959 51 252 0.0 0.0 0.00 0.00 0.00 88 1012.7
20260502070901 51 252 0.0 0.0 0.00 0.00 0.00 88 1012.8
20260502070759 51 252 0.0 0.0 0.00 0.00 0.00 88 1012.6
20260502070659 51 252 0.0 0.0 0.00 0.00 0.00 88 1012.6
20260502070559 51 252 0.0 0.0 0.00 0.00 0.00 88 1012.6
20260502070459 51 252 0.0 0.0 0.00 0.00 0.00 88 1012.7
20260502070300 51 252 0.0 0.0 0.00 0.00 0.00 88 1012.8
20260502070101 51 252 0.0 0.0 0.00 0.00 0.00 88 1012.8
20260502070002 51 252 0.0 0.0 0.00 0.00 0.00 88 1012.8
20260502065901 51 252 0.0 0.0 0.00 0.00 0.00 88 1012.8
20260502065800 51 252 0.0 0.0 0.00 0.00 0.00 88 1012.7
20260502065701 51 252 0.0 0.0 0.00 0.00 0.00 88 1012.7
20260502065459 51 250 0.0 0.0 0.00 0.00 0.00 88 1012.5
20260502065400 51 250 0.0 0.0 0.00 0.00 0.00 88 1012.5
20260502065300 51 250 0.0 0.0 0.00 0.00 0.00 88 1012.7
20260502065100 51 250 0.0 0.0 0.00 0.00 0.00 88 1012.7
20260502064959 51 250 0.0 0.0 0.00 0.00 0.00 88 1012.7
20260502064859 51 250 0.0 0.0 0.00 0.00 0.00 88 1012.8
20260502064801 51 250 0.0 0.0 0.00 0.00 0.00 88 1012.8
20260502064659 51 250 0.0 0.0 0.00 0.00 0.00 88 1012.8
20260502064609 51 250 0.0 0.0 0.00 0.00 0.00 88 1012.9
20260502064600 51 250 0.0 0.0 0.00 0.00 0.00 88 1013.0
20260502064503 51 250 0.0 0.0 0.00 0.00 0.00 88 1013.0
20260502064400 51 250 0.0 0.0 0.00 0.00 0.00 88 1012.8
20260502064300 51 250 0.0 0.0 0.00 0.00 0.00 88 1012.8
20260502064201 51 250 0.0 0.0 0.00 0.00 0.00 88 1012.8
20260502064100 51 250 0.0 0.0 0.00 0.00 0.00 88 1012.8
20260502064001 51 250 0.0 0.0 0.00 0.00 0.00 88 1012.8
20260502063901 51 250 0.0 0.0 0.00 0.00 0.00 88 1012.6
20260502063800 51 250 0.0 0.0 0.00 0.00 0.00 88 1012.7
20260502063701 51 250 0.0 0.0 0.00 0.00 0.00 88 1012.6
20260502063559 51 250 0.0 0.0 0.00 0.00 0.00 88 1012.6
20260502063500 51 250 0.0 0.9 0.00 0.00 0.00 88 1012.6
20260502063400 51 250 0.0 0.9 0.00 0.00 0.00 88 1012.7
20260502063159 51 250 0.0 0.9 0.00 0.00 0.00 88 1012.8
20260502063100 51 250 0.0 0.9 0.00 0.00 0.00 88 1012.8
20260502062900 51 250 0.0 0.9 0.00 0.00 0.00 88 1012.8
20260502062800 51 250 0.0 0.9 0.00 0.00 0.00 88 1012.8
20260502062700 51 250 0.0 0.0 0.00 0.00 0.00 88 1012.8
20260502062600 51 250 0.0 0.0 0.00 0.00 0.00 88 1012.7
20260502062501 51 250 0.0 0.0 0.00 0.00 0.00 88 1012.6
20260502062359 51 250 0.0 0.0 0.00 0.00 0.00 88 1012.6
20260502062259 51 250 0.0 0.0 0.00 0.00 0.00 88 1012.7
20260502062200 51 250 0.0 0.0 0.00 0.00 0.00 88 1012.6
20260502062101 51 250 0.0 0.0 0.00 0.00 0.00 88 1012.6
20260502062000 51 250 0.0 0.0 0.00 0.00 0.00 88 1012.5
20260502061800 51 250 0.0 0.0 0.00 0.00 0.00 88 1012.6
20260502061701 51 250 0.0 0.0 0.00 0.00 0.00 88 1012.7
20260502061600 51 250 0.0 0.0 0.00 0.00 0.00 88 1012.7
20260502061559 51 250 0.0 0.0 0.00 0.00 0.00 88 1012.7
20260502061500 51 250 0.0 0.0 0.00 0.00 0.00 88 1012.7
20260502061301 51 250 0.0 0.0 0.00 0.00 0.00 88 1012.6
20260502061101 51 249 0.0 0.0 0.00 0.00 0.00 88 1012.8
20260502061000 51 248 0.0 0.0 0.00 0.00 0.00 88 1012.8
20260502060900 51 249 0.0 0.0 0.00 0.00 0.00 88 1012.7
20260502060801 51 248 0.0 0.0 0.00 0.00 0.00 88 1012.7
20260502060600 51 248 0.0 0.0 0.00 0.00 0.00 88 1012.6
20260502060400 51 249 0.0 0.0 0.00 0.00 0.00 88 1012.6
20260502060259 51 248 0.0 0.0 0.00 0.00 0.00 88 1012.6
20260502060200 51 249 0.0 0.0 0.00 0.00 0.00 88 1012.6
20260502060100 51 248 0.0 0.0 0.00 0.00 0.00 88 1012.6
20260502060000 51 249 0.0 0.0 0.00 0.00 0.00 88 1012.7
20260502055859 51 249 0.0 0.0 0.00 0.00 0.00 88 1012.6
20260502055700 51 248 0.0 0.0 0.00 0.00 0.00 88 1012.5
20260502055601 51 248 0.0 0.0 0.00 0.00 0.00 88 1012.5
20260502055500 51 249 0.0 0.0 0.00 0.00 0.00 88 1012.6
20260502055300 51 249 0.0 0.0 0.00 0.00 0.00 88 1012.6
20260502055100 51 249 0.0 0.0 0.00 0.00 0.00 88 1012.6
20260502055001 51 248 0.0 0.0 0.00 0.00 0.00 88 1012.6
20260502054900 51 248 0.0 0.0 0.00 0.00 0.00 88 1012.8
20260502054700 51 249 0.0 0.0 0.00 0.00 0.00 88 1012.7
20260502054601 51 249 0.0 0.0 0.00 0.00 0.00 87 1012.9
20260502054300 51 248 0.0 0.0 0.00 0.00 0.00 87 1013.0
20260502054200 51 248 0.0 0.0 0.00 0.00 0.00 87 1013.0
20260502054100 51 248 0.0 0.0 0.00 0.00 0.00 88 1013.1
20260502054001 51 249 0.0 0.0 0.00 0.00 0.00 87 1013.1
20260502053901 51 249 0.0 0.0 0.00 0.00 0.00 87 1013.1
20260502053659 51 248 0.0 0.0 0.00 0.00 0.00 88 1013.1
20260502053600 51 248 0.0 0.0 0.00 0.00 0.00 88 1012.9
20260502053501 51 248 0.0 0.0 0.00 0.00 0.00 87 1012.9
20260502053300 51 248 0.0 0.0 0.00 0.00 0.00 87 1013.1
20260502053200 51 249 0.0 0.0 0.00 0.00 0.00 87 1013.1
20260502053101 51 249 0.0 0.0 0.00 0.00 0.00 87 1013.0
20260502053001 51 249 0.0 0.0 0.00 0.00 0.00 88 1013.1
20260502052902 51 249 0.0 0.0 0.00 0.00 0.00 88 1013.1
20260502052800 51 248 0.0 0.0 0.00 0.00 0.00 88 1013.0
20260502052659 51 249 0.0 0.0 0.00 0.00 0.00 87 1013.1
20260502052400 51 248 0.0 0.0 0.00 0.00 0.00 87 1013.0
20260502052000 51 248 0.0 0.0 0.00 0.00 0.00 87 1012.9
20260502051859 51 249 0.0 0.0 0.00 0.00 0.00 87 1012.8
20260502051800 51 248 0.0 0.0 0.00 0.00 0.00 87 1012.8
20260502051701 51 249 0.0 0.0 0.00 0.00 0.00 87 1012.9
20260502051659 51 248 0.0 0.0 0.00 0.00 0.00 87 1013.0
20260502051559 51 249 0.0 0.0 0.00 0.00 0.00 87 1012.9
20260502051402 51 248 0.0 0.0 0.00 0.00 0.00 87 1013.0
20260502051302 51 249 0.0 0.0 0.00 0.00 0.00 87 1012.8
20260502051100 51 249 0.0 0.0 0.00 0.00 0.00 87 1013.0
20260502051001 51 248 0.0 0.0 0.00 0.00 0.00 87 1013.0
20260502050859 51 248 0.0 0.0 0.00 0.00 0.00 87 1013.1
20260502050800 51 248 0.0 0.0 0.00 0.00 0.00 87 1013.1
20260502050702 51 249 0.0 0.0 0.00 0.00 0.00 87 1013.0
20260502050559 51 248 0.0 0.0 0.00 0.00 0.00 87 1013.1
20260502050501 51 248 0.0 0.0 0.00 0.00 0.00 87 1013.1
20260502050359 51 248 0.0 0.0 0.00 0.00 0.00 87 1013.1
20260502050259 51 248 0.0 0.0 0.00 0.00 0.00 87 1013.1
20260502050201 51 249 0.0 0.0 0.00 0.00 0.00 87 1013.1
20260502050101 51 249 0.0 0.0 0.00 0.00 0.00 87 1013.1
20260502050059 51 249 0.0 0.0 0.00 0.00 0.00 87 1013.1
20260502050000 51 248 0.0 0.0 0.00 0.00 0.00 87 1013.1
20260502045700 51 249 0.0 0.0 0.00 0.00 0.00 87 1013.1
20260502045559 51 248 0.0 0.0 0.00 0.00 0.00 87 1013.2
20260502045459 51 249 0.0 0.0 0.00 0.00 0.00 87 1013.1
20260502045400 51 249 0.0 0.0 0.00 0.00 0.00 87 1013.2
20260502045259 51 249 0.0 0.0 0.00 0.00 0.00 87 1013.2
20260502045159 51 249 0.0 0.0 0.00 0.00 0.00 87 1013.2
20260502045100 51 249 0.0 0.0 0.00 0.00 0.00 87 1013.2
20260502044959 51 249 0.0 0.0 0.00 0.00 0.00 87 1013.3
20260502044900 51 249 0.0 0.0 0.00 0.00 0.00 87 1013.3
20260502044758 51 249 0.0 0.0 0.00 0.00 0.00 87 1013.3
20260502044658 51 249 0.0 0.0 0.00 0.00 0.00 87 1013.4
20260502044608 51 249 0.0 0.0 0.00 0.00 0.00 87 1013.3
20260502044559 51 249 0.0 0.0 0.00 0.00 0.00 87 1013.3
20260502044500 51 249 0.0 0.0 0.00 0.00 0.00 87 1013.3
20260502044358 51 249 0.0 0.0 0.00 0.00 0.00 87 1013.4
20260502044300 51 248 0.0 0.0 0.00 0.00 0.00 87 1013.3
20260502044100 51 248 0.0 0.0 0.00 0.00 0.00 87 1013.4
20260502044000 51 249 0.0 0.0 0.00 0.00 0.00 87 1013.4
20260502043659 51 249 0.0 0.0 0.00 0.00 0.00 87 1013.4
20260502043559 51 248 0.0 0.0 0.00 0.00 0.00 87 1013.3
20260502043359 51 249 0.0 0.0 0.00 0.00 0.00 87 1013.3
20260502043259 51 249 0.0 0.0 0.00 0.00 0.00 87 1013.3
20260502043200 51 249 0.0 0.0 0.00 0.00 0.00 87 1013.4
20260502043109 51 249 0.0 0.0 0.00 0.00 0.00 87 1013.2
20260502042859 51 248 0.0 0.0 0.00 0.00 0.00 87 1013.4
20260502042758 51 249 0.0 0.0 0.00 0.00 0.00 87 1013.4
20260502042700 51 249 0.0 0.0 0.00 0.00 0.00 87 1013.3
20260502042559 51 248 0.0 0.0 0.00 0.00 0.00 87 1013.4
20260502042359 51 249 0.0 0.0 0.00 0.00 0.00 87 1013.3
20260502042159 51 249 0.0 0.0 0.00 0.00 0.00 87 1013.4
20260502042058 51 248 0.0 0.0 0.00 0.00 0.00 87 1013.3
20260502041959 51 249 0.0 0.0 0.00 0.00 0.00 87 1013.3
20260502041858 51 249 0.0 0.0 0.00 0.00 0.00 87 1013.3
20260502041758 51 248 0.0 0.0 0.00 0.00 0.00 87 1013.3
20260502041600 51 249 0.0 0.0 0.00 0.00 0.00 87 1013.2
20260502041500 51 249 0.0 0.0 0.00 0.00 0.00 87 1013.3
20260502041358 52 249 0.0 0.0 0.00 0.00 0.00 87 1013.4
20260502041300 52 249 0.0 0.0 0.00 0.00 0.00 87 1013.4
20260502041158 52 249 0.0 0.0 0.00 0.00 0.00 87 1013.5
20260502041100 52 249 0.0 0.0 0.00 0.00 0.00 87 1013.5
20260502040959 52 248 0.0 0.0 0.00 0.00 0.00 87 1013.5
20260502040900 52 249 0.0 0.0 0.00 0.00 0.00 87 1013.5
20260502040759 52 249 0.0 0.0 0.00 0.00 0.00 87 1013.3
20260502040700 52 248 0.0 0.0 0.00 0.00 0.00 87 1013.3
20260502040559 52 248 0.0 0.0 0.00 0.00 0.00 87 1013.4
20260502040458 52 249 0.0 0.0 0.00 0.00 0.00 87 1013.4
20260502040359 52 249 0.0 0.0 0.00 0.00 0.00 87 1013.5
20260502040259 52 248 0.0 0.0 0.00 0.00 0.00 87 1013.5
20260502040203 52 249 0.0 0.0 0.00 0.00 0.00 87 1013.5
20260502040003 52 248 0.0 0.0 0.00 0.00 0.00 87 1013.4
20260502035901 52 248 0.0 0.0 0.00 0.00 0.00 87 1013.5
20260502035801 52 249 0.0 0.0 0.00 0.00 0.00 86 1013.5
20260502035702 52 248 0.0 0.0 0.00 0.00 0.00 87 1013.6
20260502035603 52 249 0.0 0.0 0.00 0.00 0.00 86 1013.5
20260502035502 52 248 0.0 0.0 0.00 0.00 0.00 86 1013.6
20260502035402 52 248 0.0 0.0 0.00 0.00 0.00 86 1013.6
20260502035301 52 249 0.0 0.0 0.00 0.00 0.00 86 1013.6
20260502035202 52 248 0.0 0.0 0.00 0.00 0.00 86 1013.5
20260502035103 52 249 0.0 0.0 0.00 0.00 0.00 86 1013.6
20260502035001 52 248 0.0 0.0 0.00 0.00 0.00 86 1013.6
20260502034902 52 249 0.0 0.0 0.00 0.00 0.00 86 1013.6
20260502034802 52 248 0.0 0.0 0.00 0.00 0.00 86 1013.5
20260502034702 52 249 0.0 0.0 0.00 0.00 0.00 86 1013.6
20260502034602 52 249 0.0 0.0 0.00 0.00 0.00 86 1013.7
20260502034502 52 248 0.0 0.0 0.00 0.00 0.00 86 1013.6
20260502034402 52 249 0.0 0.0 0.00 0.00 0.00 86 1013.6
20260502034204 52 249 0.0 0.0 0.00 0.00 0.00 86 1013.6
20260502034102 52 248 0.0 0.0 0.00 0.00 0.00 86 1013.7
20260502034002 52 249 0.0 0.0 0.00 0.00 0.00 86 1013.6
20260502033903 52 248 0.0 0.0 0.00 0.00 0.00 86 1013.7
20260502033802 52 249 0.0 0.0 0.00 0.00 0.00 86 1013.7
20260502033701 52 249 0.0 0.0 0.00 0.00 0.00 86 1013.8
20260502033602 52 249 0.0 0.0 0.00 0.00 0.00 86 1013.6
20260502033502 52 249 0.0 0.0 0.00 0.00 0.00 86 1013.8
20260502033201 52 248 0.0 0.0 0.00 0.00 0.00 86 1013.6
20260502033103 52 249 0.0 0.0 0.00 0.00 0.00 86 1013.6
20260502033002 52 249 0.0 0.0 0.00 0.00 0.00 86 1013.6
20260502032902 52 249 0.0 0.0 0.00 0.00 0.00 86 1013.5
20260502032801 52 248 0.0 0.0 0.00 0.00 0.00 86 1013.5
20260502032703 52 249 0.0 0.0 0.00 0.00 0.00 86 1013.5
20260502032602 52 249 0.0 0.0 0.00 0.00 0.00 86 1013.6
20260502032502 52 249 0.0 0.0 0.00 0.00 0.00 86 1013.5
20260502032402 52 248 0.0 0.0 0.00 0.00 0.00 86 1013.6
20260502032305 52 248 0.0 0.0 0.00 0.00 0.00 86 1013.5
20260502032201 52 248 0.0 0.0 0.00 0.00 0.00 86 1013.5
20260502032103 52 248 0.0 0.0 0.00 0.00 0.00 86 1013.6
20260502032002 52 249 0.0 0.0 0.00 0.00 0.00 86 1013.5
20260502031902 52 249 0.0 0.0 0.00 0.00 0.00 86 1013.4
20260502031602 52 249 0.0 0.0 0.00 0.00 0.00 86 1013.5
20260502031501 52 249 0.0 0.0 0.00 0.00 0.00 86 1013.6
20260502031404 52 249 0.0 0.0 0.00 0.00 0.00 86 1013.6
20260502031302 52 249 0.0 0.0 0.00 0.00 0.00 86 1013.6
20260502031203 53 249 0.0 0.0 0.00 0.00 0.00 86 1013.5
20260502031101 53 249 0.0 0.0 0.00 0.00 0.00 86 1013.5
20260502031003 53 249 0.0 0.0 0.00 0.00 0.00 86 1013.6
20260502030902 52 249 0.0 0.0 0.00 0.00 0.00 86 1013.5
20260502030802 53 248 0.0 0.0 0.00 0.00 0.00 86 1013.5
20260502030702 53 248 0.0 0.0 0.00 0.00 0.00 85 1013.5
20260502030601 53 248 0.0 0.0 0.00 0.00 0.00 85 1013.5
20260502030503 53 249 0.0 0.0 0.00 0.00 0.00 85 1013.6
20260502030402 53 249 0.0 0.0 0.00 0.00 0.00 85 1013.6
20260502030302 53 249 0.0 0.0 0.00 0.00 0.00 85 1013.6
20260502030203 53 249 0.0 0.0 0.00 0.00 0.00 85 1013.6
20260502030002 53 248 0.0 0.0 0.00 0.00 0.00 85 1013.6
20260502025902 53 248 0.0 0.0 0.00 0.00 0.00 85 1013.6
20260502025802 53 249 0.0 0.0 0.00 0.00 0.00 85 1013.6
20260502025602 53 249 0.0 0.0 0.00 0.00 0.00 85 1013.5
20260502025502 53 249 0.0 0.0 0.00 0.00 0.00 85 1013.6
20260502025401 53 249 0.0 0.0 0.00 0.00 0.00 85 1013.6
20260502025306 53 249 0.0 0.0 0.00 0.00 0.00 85 1013.7
20260502025102 53 249 0.0 0.0 0.00 0.00 0.00 85 1013.5
20260502025001 53 248 0.0 0.0 0.00 0.00 0.00 85 1013.6
20260502024902 53 249 0.0 0.0 0.00 0.00 0.00 85 1013.6
20260502024802 53 249 0.0 0.0 0.00 0.00 0.00 85 1013.6
20260502024701 53 249 0.0 0.0 0.00 0.00 0.00 85 1013.7
20260502024601 53 249 0.0 0.0 0.00 0.00 0.00 85 1013.7
20260502024503 53 248 0.0 0.0 0.00 0.00 0.00 85 1013.7
20260502024403 53 249 0.0 0.0 0.00 0.00 0.00 85 1013.6
20260502024302 53 248 0.0 0.0 0.00 0.00 0.00 84 1013.6
20260502024202 53 248 0.0 0.0 0.00 0.00 0.00 84 1013.6
20260502024102 53 249 0.0 0.0 0.00 0.00 0.00 84 1013.6
20260502024002 53 249 0.0 0.0 0.00 0.00 0.00 84 1013.5
20260502023902 53 249 0.0 0.0 0.00 0.00 0.00 84 1013.5
20260502023802 53 249 0.0 0.0 0.00 0.00 0.00 84 1013.6
20260502023701 53 249 0.0 0.0 0.00 0.00 0.00 84 1013.7
20260502023601 53 249 0.0 0.0 0.00 0.00 0.00 84 1013.7
20260502023503 53 249 0.0 0.0 0.00 0.00 0.00 84 1013.6
20260502023402 53 249 0.0 0.0 0.00 0.00 0.00 84 1013.7
20260502023302 53 249 0.0 0.0 0.00 0.00 0.00 84 1013.6
20260502023204 53 248 0.0 0.0 0.00 0.00 0.00 84 1013.6
20260502023102 53 248 0.0 0.0 0.00 0.00 0.00 84 1013.7
20260502023002 53 248 0.0 0.0 0.00 0.00 0.00 84 1013.7
20260502022902 53 249 0.0 0.0 0.00 0.00 0.00 84 1013.7
20260502022702 53 249 0.0 0.0 0.00 0.00 0.00 84 1013.5
20260502022602 53 248 0.0 0.0 0.00 0.00 0.00 84 1013.6
20260502022502 53 249 0.0 0.0 0.00 0.00 0.00 84 1013.6
20260502022402 53 248 0.0 0.0 0.00 0.00 0.00 83 1013.6
20260502022306 53 248 0.0 0.0 0.00 0.00 0.00 83 1013.6
20260502022101 53 249 0.0 0.0 0.00 0.00 0.00 83 1013.8
20260502022001 53 249 0.0 0.0 0.00 0.00 0.00 83 1013.7
20260502021801 53 248 0.0 0.0 0.00 0.00 0.00 83 1013.9
20260502021702 53 249 0.0 0.0 0.00 0.00 0.00 83 1013.8
20260502021602 53 248 0.0 0.0 0.00 0.00 0.00 83 1013.8
20260502021503 53 248 0.0 0.0 0.00 0.00 0.00 83 1013.8
20260502021403 53 249 0.0 0.0 0.00 0.00 0.00 83 1013.7
20260502021203 53 249 0.0 0.0 0.00 0.00 0.00 83 1013.8
20260502021102 53 249 0.0 0.0 0.00 0.00 0.00 83 1013.7
20260502020902 53 249 0.0 0.0 0.00 0.00 0.00 83 1013.7
20260502020802 53 248 0.0 0.0 0.00 0.00 0.00 83 1013.7
20260502020701 53 249 0.0 0.0 0.00 0.00 0.00 83 1013.7
20260502020502 53 249 0.0 0.0 0.00 0.00 0.00 83 1013.7
20260502020404 53 248 0.0 0.0 0.00 0.00 0.00 83 1013.7
20260502020302 53 249 0.0 0.0 0.00 0.00 0.00 83 1013.7
20260502020004 53 248 0.0 0.0 0.00 0.00 0.00 82 1013.6
20260502015901 53 248 0.0 0.0 0.00 0.00 0.00 82 1013.7
20260502015801 53 249 0.0 0.0 0.00 0.00 0.00 82 1013.7
20260502015702 53 248 0.0 0.0 0.00 0.00 0.00 82 1013.7
20260502015502 53 249 0.0 0.9 0.00 0.00 0.00 82 1013.8
20260502015402 53 249 0.0 0.9 0.00 0.00 0.00 82 1013.8
20260502015203 53 248 0.0 0.9 0.00 0.00 0.00 82 1013.7
20260502015004 53 249 0.0 0.9 0.00 0.00 0.00 82 1013.7
20260502014901 54 249 0.0 0.9 0.00 0.00 0.00 81 1013.8
20260502014802 54 248 0.0 0.9 0.00 0.00 0.00 81 1013.8
20260502014603 54 246 0.0 0.0 0.00 0.00 0.00 81 1013.8
20260502014504 54 246 0.0 0.0 0.00 0.00 0.00 81 1013.7
20260502014502 54 246 0.0 0.0 0.00 0.00 0.00 81 1013.7
20260502014402 54 246 0.0 0.0 0.00 0.00 0.00 81 1013.7
20260502014302 54 245 0.0 0.0 0.00 0.00 0.00 81 1013.6
20260502014201 54 246 0.0 0.0 0.00 0.00 0.00 81 1013.6
20260502014103 54 246 0.0 0.0 0.00 0.00 0.00 81 1013.6
20260502014002 54 246 0.0 0.0 0.00 0.00 0.00 81 1013.5
20260502013901 54 246 0.0 0.0 0.00 0.00 0.00 81 1013.6
20260502013803 54 246 0.0 0.0 0.00 0.00 0.00 81 1013.6
20260502013701 54 246 0.0 0.0 0.00 0.00 0.00 80 1013.6
20260502013501 54 246 0.0 0.0 0.00 0.00 0.00 80 1013.6
20260502013401 54 246 0.0 0.0 0.00 0.00 0.00 80 1013.5
20260502013301 54 246 0.0 0.0 0.00 0.00 0.00 80 1013.6
20260502013202 54 246 0.0 0.0 0.00 0.00 0.00 80 1013.6
20260502013102 54 245 0.0 0.0 0.00 0.00 0.00 80 1013.6
20260502013002 54 246 0.0 0.0 0.00 0.00 0.00 80 1013.6
20260502012901 54 246 0.0 0.0 0.00 0.00 0.00 80 1013.7
20260502012801 54 246 0.0 0.0 0.00 0.00 0.00 80 1013.7
20260502012701 54 246 0.0 0.0 0.00 0.00 0.00 80 1013.6
20260502012502 54 246 0.0 0.0 0.00 0.00 0.00 80 1013.6
20260502012402 54 246 0.0 0.0 0.00 0.00 0.00 80 1013.7
20260502012306 54 246 0.0 0.0 0.00 0.00 0.00 80 1013.6
20260502012202 54 246 0.0 0.0 0.00 0.00 0.00 80 1013.6
20260502012102 54 246 0.0 0.0 0.00 0.00 0.00 80 1013.6
20260502012004 54 246 0.0 0.0 0.00 0.00 0.00 80 1013.8
20260502011802 54 246 0.0 0.0 0.00 0.00 0.00 80 1013.5
20260502011701 54 246 0.0 0.0 0.00 0.00 0.00 80 1013.5
20260502011603 54 246 0.0 0.0 0.00 0.00 0.00 79 1013.6
20260502011503 54 246 0.0 0.0 0.00 0.00 0.00 79 1013.5
20260502011401 54 246 0.0 0.0 0.00 0.00 0.00 79 1013.5
20260502011303 54 246 0.0 0.0 0.00 0.00 0.00 79 1013.6
20260502011201 54 246 0.0 0.0 0.00 0.00 0.00 79 1013.6
20260502011102 54 245 0.0 0.0 0.00 0.00 0.00 79 1013.6
20260502011001 54 246 0.0 0.0 0.00 0.00 0.00 79 1013.7
20260502010902 54 246 0.0 0.0 0.00 0.00 0.00 79 1013.7
20260502010802 54 246 0.0 0.0 0.00 0.00 0.00 79 1013.7
20260502010701 55 246 0.0 0.0 0.00 0.00 0.00 78 1013.5
20260502010602 55 245 0.0 0.0 0.00 0.00 0.00 79 1013.6
20260502010502 55 246 0.0 0.0 0.00 0.00 0.00 79 1013.5
20260502010403 55 246 0.0 0.0 0.00 0.00 0.00 79 1013.5
20260502010002 55 246 0.0 0.0 0.00 0.00 0.00 78 1013.3
20260502005902 55 245 0.0 0.0 0.00 0.00 0.00 78 1013.4
20260502005703 55 246 0.0 0.0 0.00 0.00 0.00 78 1013.3
20260502005602 55 246 0.0 0.0 0.00 0.00 0.00 78 1013.2
20260502005501 55 246 0.0 0.0 0.00 0.00 0.00 78 1013.3
20260502005402 55 246 0.0 0.0 0.00 0.00 0.00 78 1013.2
20260502005305 55 246 0.0 0.0 0.00 0.00 0.00 78 1013.2
20260502005202 55 246 0.0 0.0 0.00 0.00 0.00 78 1013.2
20260502005102 55 245 0.0 0.0 0.00 0.00 0.00 78 1013.1
20260502004903 55 246 0.0 0.0 0.00 0.00 0.00 78 1013.2
20260502004802 55 246 0.0 0.9 0.00 0.00 0.00 78 1013.2
20260502004701 55 246 0.0 0.9 0.00 0.00 0.00 78 1013.2
20260502004601 55 246 0.0 0.9 0.00 0.00 0.00 78 1013.2
20260502004504 55 246 0.0 0.9 0.00 0.00 0.00 78 1013.1
20260502004502 55 246 0.0 0.9 0.00 0.00 0.00 78 1013.1
20260502004402 55 246 0.0 0.9 0.00 0.00 0.00 78 1013.3
20260502004302 55 246 0.0 0.9 0.00 0.00 0.00 77 1013.4
20260502004201 55 246 0.0 0.9 0.00 0.00 0.00 77 1013.3
20260502004002 55 246 0.0 0.9 0.00 0.00 0.00 77 1013.3
20260502003803 55 248 0.0 0.0 0.00 0.00 0.00 77 1013.2
20260502003702 55 249 0.0 0.0 0.00 0.00 0.00 77 1013.2
20260502003602 55 248 0.0 0.0 0.00 0.00 0.00 78 1013.2
20260502003503 55 249 0.0 0.0 0.00 0.00 0.00 78 1013.1
20260502003403 55 249 0.0 0.0 0.00 0.00 0.00 77 1013.1
20260502003103 55 248 0.0 0.0 0.00 0.00 0.00 77 1013.1
20260502003004 55 249 0.0 0.0 0.00 0.00 0.00 77 1012.9
20260502002902 55 249 0.0 0.0 0.00 0.00 0.00 77 1013.0
20260502002702 55 249 0.0 0.0 0.00 0.00 0.00 77 1012.8
20260502002601 55 249 0.0 0.0 0.00 0.00 0.00 77 1012.9
20260502002503 55 249 0.0 0.0 0.00 0.00 0.00 76 1012.9
20260502002403 56 248 0.0 0.0 0.00 0.00 0.00 76 1012.9
20260502002305 56 249 0.0 0.0 0.00 0.00 0.00 76 1012.8
20260502002202 56 249 0.0 0.0 0.00 0.00 0.00 76 1012.7
20260502002003 56 249 0.0 0.0 0.00 0.00 0.00 76 1012.7
20260502001902 56 249 0.0 0.0 0.00 0.00 0.00 76 1012.7
20260502001802 56 249 0.0 0.0 0.00 0.00 0.00 76 1012.7
20260502001702 56 248 0.0 0.0 0.00 0.00 0.00 76 1012.6
20260502001602 56 249 0.0 0.0 0.00 0.00 0.00 76 1012.7
20260502001503 56 248 0.0 0.0 0.00 0.00 0.00 76 1012.6
20260502001303 56 249 0.0 0.0 0.00 0.00 0.00 76 1012.6
20260502001201 56 248 0.0 0.0 0.00 0.00 0.00 76 1012.7
20260502001102 56 249 0.0 0.0 0.00 0.00 0.00 75 1012.7
20260502001002 56 248 0.0 0.0 0.00 0.00 0.00 76 1012.7
20260502000901 56 248 0.0 0.0 0.00 0.00 0.00 75 1012.7
20260502000801 56 248 0.0 0.9 0.00 0.00 0.00 75 1012.7
20260502000603 56 249 0.0 0.9 0.00 0.00 0.00 75 1012.6
20260502000501 57 248 0.0 0.9 0.00 0.00 0.00 75 1012.7
20260502000302 57 249 0.0 0.9 0.00 0.00 0.00 75 1012.7
20260502000203 57 249 0.0 0.9 0.00 0.00 0.00 75 1012.8
20260502000003 57 249 0.0 0.9 0.00 0.00 0.00 75 1012.7
20260501235901 57 248 0.0 0.0 0.00 0.00 0.00 74 1012.8
20260501235802 57 248 0.0 0.0 0.00 0.00 0.00 74 1012.7
20260501235702 57 248 0.0 0.0 0.00 0.00 0.00 74 1012.7
20260501235601 57 248 0.0 0.0 0.00 0.00 0.00 74 1012.7
20260501235502 57 248 0.0 0.0 0.00 0.00 0.00 74 1012.6
20260501235401 57 248 0.0 0.0 0.00 0.00 0.00 74 1012.7
20260501235203 57 248 0.0 0.0 0.00 0.00 0.00 74 1012.7
20260501235002 57 248 0.0 0.0 0.00 0.00 0.00 74 1012.7
20260501234801 57 248 0.0 0.0 0.00 0.00 0.00 74 1012.8
20260501234701 57 248 0.0 0.0 0.00 0.00 0.00 74 1012.7
20260501234601 58 248 0.0 0.9 0.00 0.00 0.00 74 1012.7
20260501234503 58 249 0.0 0.9 0.00 0.00 0.00 74 1012.8
20260501234402 58 250 0.0 0.9 0.00 0.00 0.00 74 1012.9
20260501234301 58 248 0.0 0.9 0.00 0.00 0.00 73 1012.9
20260501234202 58 248 0.0 0.9 0.00 0.00 0.00 73 1012.8
20260501234101 58 248 0.0 0.9 0.00 0.00 0.00 73 1012.8
20260501233901 58 248 0.0 1.7 0.00 0.00 0.00 73 1012.8
20260501233801 58 246 0.0 1.7 0.00 0.00 0.00 73 1012.7
20260501233702 58 219 0.0 1.7 0.00 0.00 0.00 73 1012.7
20260501233601 58 260 0.0 1.7 0.00 0.00 0.00 73 1012.8
20260501233501 58 260 0.0 1.7 0.00 0.00 0.00 73 1012.8
20260501233402 58 260 0.0 1.7 0.00 0.00 0.00 72 1012.8
20260501233303 58 259 0.0 1.7 0.00 0.00 0.00 72 1012.9
20260501233202 58 256 0.0 1.7 0.00 0.00 0.00 72 1012.8
20260501233102 59 253 0.0 1.7 0.00 0.00 0.00 72 1012.8
20260501233002 59 253 0.0 1.7 0.00 0.00 0.00 72 1012.7
20260501232902 59 253 0.0 1.7 0.00 0.00 0.00 71 1012.8
20260501232801 59 241 0.0 1.7 0.00 0.00 0.00 71 1012.7
20260501232701 59 255 0.0 1.7 0.00 0.00 0.00 71 1012.8
20260501232602 59 252 0.0 1.7 0.00 0.00 0.00 70 1012.7
20260501232503 59 255 0.0 1.7 0.00 0.00 0.00 70 1012.7
20260501232404 60 252 0.0 0.9 0.00 0.00 0.00 70 1012.6
20260501232201 60 257 0.0 0.9 0.00 0.00 0.00 70 1012.7
20260501232001 60 135 0.0 0.9 0.00 0.00 0.00 70 1012.7
20260501231902 60 135 0.0 0.9 0.00 0.00 0.00 70 1012.7
20260501231702 60 135 0.0 0.9 0.00 0.00 0.00 70 1012.8
20260501231603 60 135 0.0 0.9 0.00 0.00 0.00 70 1012.7
20260501231503 60 136 0.0 0.9 0.00 0.00 0.00 70 1012.6
20260501231402 60 137 0.0 0.9 0.00 0.00 0.00 70 1012.7
20260501231303 60 134 0.0 0.9 0.00 0.00 0.00 70 1012.7
20260501231101 60 134 0.0 0.9 0.00 0.00 0.00 69 1012.7
20260501231001 60 134 0.0 0.9 0.00 0.00 0.00 69 1012.7
20260501230904 60 117 0.0 0.9 0.00 0.00 0.00 69 1012.7
20260501230803 60 117 0.0 0.9 0.00 0.00 0.00 69 1012.8
20260501230702 60 117 0.0 0.9 0.00 0.00 0.00 68 1012.8
20260501230602 60 117 0.0 0.9 0.00 0.00 0.00 69 1012.8
20260501230502 60 112 0.0 0.9 0.00 0.00 0.00 68 1012.8
20260501230403 60 94 0.0 0.9 0.00 0.00 0.00 68 1012.8
20260501230301 60 92 0.0 0.9 0.00 0.00 0.00 68 1012.8
20260501230203 60 91 0.0 0.9 0.00 0.00 0.00 68 1012.8
20260501230003 61 94 0.0 0.9 0.00 0.00 0.00 68 1012.6
20260501225902 61 94 0.0 0.9 0.00 0.00 0.00 68 1012.7
20260501225803 61 151 0.0 0.9 0.00 0.00 0.00 68 1012.7
20260501225701 61 151 0.0 0.9 0.00 0.00 0.00 67 1012.8
20260501225601 61 112 0.0 0.9 0.00 0.00 0.00 67 1012.8
20260501225402 61 110 0.0 0.9 0.00 0.00 0.00 67 1012.8
20260501225305 61 110 0.0 0.9 0.00 0.00 0.00 66 1012.8
20260501225201 61 110 0.0 0.9 0.00 0.00 0.00 66 1012.8
20260501225101 61 112 0.0 0.9 0.00 0.00 0.00 66 1012.8
20260501225002 61 111 0.0 0.9 0.00 0.00 0.00 66 1012.8
20260501224802 61 127 0.0 0.9 0.00 0.00 0.00 66 1012.7
20260501224702 62 110 0.0 0.9 0.00 0.00 0.00 65 1012.8
20260501224602 62 108 0.0 0.9 0.00 0.00 0.00 65 1012.7
20260501224502 62 109 0.0 0.9 0.00 0.00 0.00 65 1012.8
20260501224402 62 115 0.0 0.9 0.00 0.00 0.00 65 1012.7
20260501224302 62 113 0.0 0.9 0.00 0.00 0.00 65 1012.7
20260501224203 62 113 0.0 0.9 0.00 0.00 0.00 65 1012.7
20260501224103 62 127 0.0 1.7 0.00 0.00 0.00 64 1012.7
20260501224002 62 104 0.0 1.7 0.00 0.00 0.00 64 1012.7
20260501223903 62 103 0.0 1.7 0.00 0.00 0.00 64 1012.7
20260501223801 62 77 0.0 1.7 0.00 0.00 0.00 64 1012.8
20260501223602 62 138 0.0 1.7 0.00 0.00 0.00 63 1012.9
20260501223502 63 135 0.0 1.7 0.00 0.00 0.00 63 1013.0
20260501223402 63 143 0.0 1.7 0.00 0.00 0.00 62 1013.0
20260501223301 63 248 0.0 1.7 0.00 0.00 0.00 62 1012.9
20260501223203 63 224 0.0 1.7 0.00 0.00 0.00 62 1013.0
20260501223101 63 194 0.0 1.7 0.00 0.00 0.00 62 1012.9
20260501223002 63 221 0.0 1.7 0.00 0.00 0.00 61 1013.0
20260501222901 64 224 0.0 1.7 0.00 0.00 0.00 60 1012.9
20260501222801 64 203 0.0 1.7 0.00 0.00 0.00 60 1013.0
20260501222602 64 262 0.0 1.7 0.00 0.00 0.00 60 1013.0
20260501222502 64 152 0.0 0.9 0.00 0.00 0.00 59 1013.0
20260501222401 64 143 0.0 0.9 0.00 0.00 0.00 59 1013.0
20260501222305 64 143 0.0 0.9 0.00 0.00 0.00 59 1013.0
20260501222201 65 143 0.0 2.6 0.00 0.00 0.00 59 1013.1
20260501222002 65 148 0.0 2.6 0.00 0.00 0.00 59 1012.9
20260501221901 64 88 0.0 2.6 0.00 0.00 0.00 60 1013.1
20260501221802 64 98 0.0 2.6 0.00 0.00 0.00 60 1013.0
20260501221702 64 94 0.0 2.6 0.00 0.00 0.00 60 1013.1
20260501221602 64 135 0.0 2.6 0.00 0.00 0.00 60 1013.1
20260501221503 64 246 0.0 2.6 0.00 0.00 0.00 59 1013.0
20260501221301 65 278 0.0 3.5 0.00 0.00 0.00 58 1013.1
20260501221202 65 260 0.0 3.5 0.00 0.00 0.00 59 1013.0
20260501221103 65 256 0.0 3.5 0.00 0.00 0.00 60 1012.9
20260501221002 65 239 0.0 3.5 0.00 0.00 0.00 59 1013.0
20260501220901 65 238 0.0 3.5 0.00 0.00 0.00 58 1013.0
20260501220801 65 252 0.0 3.5 0.00 0.00 0.00 59 1013.0
20260501220601 65 136 0.0 3.5 0.00 0.00 0.00 60 1013.0
20260501220502 65 135 0.0 3.5 0.00 0.00 0.00 58 1013.0
20260501220403 65 253 0.0 1.7 0.00 0.00 0.00 58 1013.0
20260501220000 65 158 0.0 1.7 0.00 0.00 0.00 58 1013.1
20260501215800 65 120 0.0 1.7 0.00 0.00 0.00 60 1013.0
20260501215702 65 127 0.0 1.7 0.00 0.00 0.00 60 1013.1
20260501215602 65 153 0.0 1.7 0.00 0.00 0.00 60 1013.0
20260501215500 65 150 0.0 1.7 0.00 0.00 0.00 59 1013.1
20260501215403 65 152 0.0 1.7 0.00 0.00 0.00 59 1013.1
20260501215301 65 249 0.0 1.7 0.00 0.00 0.00 59 1013.1
20260501215201 65 153 0.0 1.7 0.00 0.00 0.00 58 1013.2
20260501215100 65 153 0.0 1.7 0.00 0.00 0.00 58 1013.2
20260501215000 65 158 0.0 1.7 0.00 0.00 0.00 58 1013.1
20260501214900 65 147 0.0 1.7 0.00 0.00 0.00 58 1013.1
20260501214701 65 129 0.0 0.9 0.00 0.00 0.00 59 1013.2
20260501214612 65 148 0.0 1.7 0.00 0.00 0.00 59 1013.0
20260501214600 65 148 0.0 1.7 0.00 0.00 0.00 59 1013.1
20260501214500 65 147 0.0 1.7 0.00 0.00 0.00 59 1013.2
20260501214400 65 153 0.0 1.7 0.00 0.00 0.00 59 1013.2
20260501214301 65 153 0.0 1.7 0.00 0.00 0.00 59 1013.2
20260501214201 65 139 0.0 1.7 0.00 0.00 0.00 59 1013.2
20260501214101 65 139 0.0 1.7 0.00 0.00 0.00 59 1013.3
20260501213901 65 11 0.0 1.7 0.00 0.00 0.00 58 1013.2
20260501213801 64 157 0.0 0.9 0.00 0.00 0.00 58 1013.2
20260501213701 64 130 0.0 0.9 0.00 0.00 0.00 59 1013.2
20260501213601 64 143 0.0 0.9 0.00 0.00 0.00 59 1013.2
20260501213500 64 139 0.0 0.9 0.00 0.00 0.00 60 1013.2
20260501213400 64 128 0.0 0.9 0.00 0.00 0.00 61 1013.3
20260501213301 64 130 0.0 1.7 0.00 0.00 0.00 61 1013.3
20260501213201 63 146 0.0 1.7 0.00 0.00 0.00 61 1013.1
20260501213105 63 151 0.0 1.7 0.00 0.00 0.00 60 1013.1
20260501213100 63 151 0.0 1.7 0.00 0.00 0.00 60 1013.2
20260501213000 63 143 0.0 1.7 0.00 0.00 0.00 60 1013.3
20260501212900 63 143 0.9 1.7 0.00 0.00 0.00 61 1013.2
20260501212800 63 149 0.9 1.7 0.00 0.00 0.00 61 1013.3
20260501212701 63 134 0.9 3.5 0.00 0.00 0.00 60 1013.2
20260501212601 63 155 0.9 3.5 0.00 0.00 0.00 59 1013.2
20260501212501 63 44 0.9 3.5 0.00 0.00 0.00 60 1013.3
20260501212400 63 114 0.9 3.5 0.00 0.00 0.00 61 1013.3
20260501212300 63 322 0.9 3.5 0.00 0.00 0.00 62 1013.3
20260501212200 63 257 0.9 3.5 0.00 0.00 0.00 61 1013.3
20260501212102 63 270 0.9 3.5 0.00 0.00 0.00 61 1013.3
20260501212000 63 148 0.9 3.5 0.00 0.00 0.00 61 1013.3
20260501211901 63 245 0.9 3.5 0.00 0.00 0.00 61 1013.2
20260501211801 62 259 0.9 2.6 0.00 0.00 0.00 61 1013.3
20260501211701 62 238 0.9 2.6 0.00 0.00 0.00 61 1013.3
20260501211602 63 237 0.0 2.6 0.00 0.00 0.00 61 1013.3
20260501211500 63 249 0.0 1.7 0.00 0.00 0.00 60 1013.4
20260501211400 63 75 0.0 1.7 0.00 0.00 0.00 60 1013.3
20260501211201 63 87 0.0 1.7 0.00 0.00 0.00 61 1013.3
20260501211100 63 99 0.0 1.7 0.00 0.00 0.00 61 1013.3
20260501211000 63 110 0.0 1.7 0.00 0.00 0.00 60 1013.3
20260501210901 63 101 0.0 1.7 0.00 0.00 0.00 61 1013.3
20260501210800 63 100 0.0 1.7 0.00 0.00 0.00 63 1013.4
20260501210701 63 143 0.0 1.7 0.00 0.00 0.00 63 1013.3
20260501210600 63 142 0.0 1.7 0.00 0.00 0.00 62 1013.3
20260501210500 63 142 0.0 1.7 0.00 0.00 0.00 62 1013.3
20260501210402 63 141 0.0 1.7 0.00 0.00 0.00 61 1013.4
20260501210300 63 134 0.0 1.7 0.00 0.00 0.00 60 1013.2
20260501210201 63 148 0.0 1.7 0.00 0.00 0.00 61 1013.3
20260501210100 63 130 0.9 1.7 0.00 0.00 0.00 61 1013.3
20260501210003 63 129 0.0 2.6 0.00 0.00 0.00 62 1013.2
20260501205902 63 217 0.9 2.6 0.00 0.00 0.00 62 1013.4
20260501205803 63 249 0.9 2.6 0.00 0.00 0.00 62 1013.4
20260501205603 63 153 0.0 2.6 0.00 0.00 0.00 60 1013.3
20260501205504 63 236 0.0 2.6 0.00 0.00 0.00 60 1013.3
20260501205306 64 326 0.9 2.6 0.00 0.00 0.00 59 1013.3
20260501205203 64 329 0.9 2.6 0.00 0.00 0.00 59 1013.3
20260501205101 64 257 0.0 3.5 0.00 0.00 0.00 59 1013.2
20260501205003 64 252 0.9 3.5 0.00 0.00 0.00 59 1013.3
20260501204901 64 249 0.9 3.5 0.00 0.00 0.00 59 1013.2
20260501204803 64 153 0.9 4.3 0.00 0.00 0.00 60 1013.2
20260501204702 64 61 0.9 4.3 0.00 0.00 0.00 60 1013.5
20260501204602 64 252 0.9 4.3 0.00 0.00 0.00 59 1013.4
20260501204503 64 148 0.9 4.3 0.00 0.00 0.00 59 1013.2
20260501204401 64 277 0.0 4.3 0.00 0.00 0.00 57 1013.2
20260501204302 64 248 0.0 4.3 0.00 0.00 0.00 57 1013.2
20260501204202 65 225 0.0 4.3 0.00 0.00 0.00 57 1013.3
20260501204103 65 136 0.9 4.3 0.00 0.00 0.00 56 1013.2
20260501204003 65 242 0.9 4.3 0.00 0.00 0.00 55 1013.2
20260501203903 65 152 0.9 1.7 0.00 0.00 0.00 54 1013.2
20260501203801 65 242 0.9 3.5 0.00 0.00 0.00 54 1013.2
20260501203703 65 233 0.9 3.5 0.00 0.00 0.00 55 1013.2
20260501203602 65 150 0.9 3.5 0.00 0.00 0.00 54 1013.3
20260501203402 65 236 0.9 3.5 0.00 0.00 0.00 53 1013.3
20260501203301 65 246 0.9 3.5 0.00 0.00 0.00 53 1013.3
20260501203202 65 255 0.9 3.5 0.00 0.00 0.00 52 1013.3
20260501203004 65 271 0.9 4.3 0.00 0.00 0.00 52 1013.3
20260501203002 65 271 0.9 4.3 0.00 0.00 0.00 52 1013.2
20260501202802 65 143 0.9 2.6 0.00 0.00 0.00 52 1013.2
20260501202701 65 148 0.0 2.6 0.00 0.00 0.00 52 1013.2
20260501202602 65 243 0.0 2.6 0.00 0.00 0.00 52 1013.3
20260501202503 65 233 0.0 2.6 0.00 0.00 0.00 51 1013.3
20260501202401 65 205 0.0 2.6 0.00 0.00 0.00 52 1013.3
20260501202301 66 249 0.0 3.5 0.00 0.00 0.00 51 1013.3
20260501202201 66 242 0.0 3.5 0.00 0.00 0.00 52 1013.3
20260501202001 65 224 0.0 0.9 0.00 0.00 0.00 52 1013.3
20260501201902 65 255 0.0 0.9 0.00 0.00 0.00 52 1013.2
20260501201702 65 130 0.0 0.9 0.00 0.00 0.00 52 1013.2
20260501201604 65 129 0.0 0.9 0.00 0.00 0.00 52 1013.2
20260501201502 65 145 0.0 0.9 0.00 0.00 0.00 52 1013.4
20260501201401 65 231 0.0 2.6 0.00 0.00 0.00 51 1013.4
20260501201301 65 233 0.0 2.6 0.00 0.00 0.00 52 1013.4
20260501201202 65 243 0.0 2.6 0.00 0.00 0.00 52 1013.4
20260501201101 65 100 0.0 2.6 0.00 0.00 0.00 52 1013.4
20260501200903 65 222 0.0 2.6 0.00 0.00 0.00 51 1013.3
20260501200801 66 284 0.0 2.6 0.00 0.00 0.00 51 1013.5
20260501200701 66 281 0.0 2.6 0.00 0.00 0.00 51 1013.4
20260501200603 66 264 0.0 2.6 0.00 0.00 0.00 50 1013.4
20260501200502 66 294 0.0 0.9 0.00 0.00 0.00 49 1013.5
20260501200401 66 186 0.0 0.9 0.00 0.00 0.00 51 1013.6
20260501200302 66 134 0.0 0.9 0.00 0.00 0.00 50 1013.5
20260501200201 66 137 0.0 0.9 0.00 0.00 0.00 51 1013.5
20260501200004 66 248 0.0 0.9 0.00 0.00 0.00 50 1013.6
20260501200001 66 248 0.0 0.9 0.00 0.00 0.00 50 1013.7
20260501195900 66 248 0.0 0.9 0.00 0.00 0.00 50 1013.7
20260501195802 66 224 0.0 0.9 0.00 0.00 0.00 51 1013.7
20260501195700 66 242 0.0 0.9 0.00 0.00 0.00 50 1013.8
20260501195600 66 243 0.0 1.7 0.00 0.00 0.00 50 1013.8
20260501195500 66 161 0.0 1.7 0.00 0.00 0.00 49 1013.8
20260501195301 67 249 0.0 1.7 0.00 0.00 0.00 48 1013.8